| time (UTC) | temp F | wind direction | speed knots | gust knots | rain 1hr in | rain 24hr in | rain mn in | humidity % | barometer mb |
| 20260510164009 | 57 | 298 | 4.3 | 9.6 | 0.00 | 0.02 | 0.00 | 33 | 1017.6 |
| 20260510163511 | 57 | 316 | 6.1 | 12.2 | 0.00 | 0.02 | 0.00 | 31 | 1017.6 |
| 20260510163024 | 57 | 261 | 6.1 | 12.2 | 0.00 | 0.02 | 0.00 | 31 | 1017.6 |
| 20260510162506 | 57 | 333 | 3.5 | 8.7 | 0.00 | 0.02 | 0.00 | 34 | 1017.5 |
| 20260510162005 | 57 | 303 | 2.6 | 7.8 | 0.00 | 0.02 | 0.00 | 31 | 1017.6 |
| 20260510161512 | 57 | 284 | 6.1 | 12.2 | 0.00 | 0.02 | 0.00 | 36 | 1017.5 |
| 20260510161006 | 56 | 265 | 6.1 | 11.3 | 0.00 | 0.02 | 0.00 | 36 | 1017.4 |
| 20260510160507 | 56 | 334 | 4.3 | 8.7 | 0.00 | 0.02 | 0.00 | 34 | 1017.5 |
| 20260510160024 | 56 | 271 | 4.3 | 8.7 | 0.00 | 0.02 | 0.00 | 34 | 1017.5 |
| 20260510155509 | 55 | 302 | 2.6 | 12.2 | 0.00 | 0.02 | 0.00 | 33 | 1017.4 |
| 20260510155010 | 55 | 290 | 4.3 | 13.9 | 0.00 | 0.02 | 0.00 | 36 | 1017.5 |
| 20260510154504 | 55 | 336 | 5.2 | 13.9 | 0.00 | 0.02 | 0.00 | 34 | 1017.5 |
| 20260510154004 | 55 | 34 | 4.3 | 10.4 | 0.00 | 0.02 | 0.00 | 34 | 1017.5 |
| 20260510153506 | 55 | 304 | 3.5 | 13.0 | 0.00 | 0.02 | 0.00 | 35 | 1017.4 |
| 20260510153014 | 55 | 319 | 4.3 | 13.0 | 0.00 | 0.02 | 0.00 | 33 | 1017.4 |
| 20260510152507 | 55 | 251 | 2.6 | 10.4 | 0.00 | 0.02 | 0.00 | 36 | 1017.3 |
| 20260510152011 | 54 | 293 | 3.5 | 8.7 | 0.00 | 0.02 | 0.00 | 38 | 1017.3 |
| 20260510151526 | 54 | 342 | 3.5 | 8.7 | 0.00 | 0.02 | 0.00 | 36 | 1017.3 |
| 20260510151009 | 54 | 25 | 5.2 | 8.7 | 0.00 | 0.02 | 0.00 | 39 | 1017.2 |
| 20260510150505 | 54 | 277 | 2.6 | 8.7 | 0.00 | 0.02 | 0.00 | 35 | 1017.2 |
| 20260510150010 | 54 | 336 | 2.6 | 7.8 | 0.00 | 0.02 | 0.00 | 40 | 1017.2 |
| 20260510145508 | 54 | 329 | 3.5 | 7.8 | 0.00 | 0.02 | 0.00 | 37 | 1017.0 |
| 20260510145009 | 54 | 271 | 4.3 | 7.8 | 0.00 | 0.02 | 0.00 | 39 | 1017.1 |
| 20260510144532 | 53 | 342 | 2.6 | 7.8 | 0.00 | 0.02 | 0.00 | 38 | 1016.9 |
| 20260510144014 | 53 | 24 | 1.7 | 7.0 | 0.00 | 0.02 | 0.00 | 40 | 1016.8 |
| 20260510143511 | 53 | 275 | 4.3 | 7.0 | 0.00 | 0.02 | 0.00 | 40 | 1016.9 |
| 20260510143043 | 53 | 309 | 2.6 | 6.1 | 0.00 | 0.02 | 0.00 | 42 | 1016.8 |
| 20260510142503 | 52 | 267 | 2.6 | 6.1 | 0.00 | 0.02 | 0.00 | 43 | 1016.7 |
| 20260510142004 | 52 | 263 | 2.6 | 6.1 | 0.00 | 0.02 | 0.00 | 44 | 1016.7 |
| 20260510141521 | 51 | 217 | 0.0 | 4.3 | 0.00 | 0.02 | 0.00 | 46 | 1016.7 |
| 20260510141009 | 51 | 290 | 1.7 | 7.8 | 0.00 | 0.02 | 0.00 | 44 | 1016.8 |
| 20260510140511 | 51 | 35 | 2.6 | 7.8 | 0.00 | 0.02 | 0.00 | 45 | 1016.8 |
| 20260510140028 | 51 | 63 | 2.6 | 7.0 | 0.00 | 0.02 | 0.00 | 44 | 1016.7 |
| 20260510135510 | 51 | 28 | 1.7 | 4.3 | 0.00 | 0.02 | 0.00 | 46 | 1016.8 |
| 20260510135014 | 50 | 294 | 1.7 | 7.8 | 0.00 | 0.02 | 0.00 | 45 | 1016.8 |
| 20260510134506 | 50 | 23 | 2.6 | 7.8 | 0.00 | 0.02 | 0.00 | 47 | 1016.7 |
| 20260510134006 | 50 | 34 | 4.3 | 7.8 | 0.00 | 0.02 | 0.00 | 44 | 1016.7 |
| 20260510133509 | 50 | 267 | 0.9 | 4.3 | 0.00 | 0.02 | 0.00 | 47 | 1016.7 |
| 20260510133023 | 50 | 51 | 2.6 | 7.0 | 0.00 | 0.02 | 0.00 | 50 | 1016.6 |
| 20260510132511 | 50 | 10 | 3.5 | 7.0 | 0.00 | 0.02 | 0.00 | 47 | 1016.5 |
| 20260510132016 | 50 | 342 | 2.6 | 4.3 | 0.00 | 0.02 | 0.00 | 47 | 1016.4 |
| 20260510131529 | 49 | 13 | 1.7 | 7.0 | 0.00 | 0.02 | 0.00 | 49 | 1016.5 |
| 20260510131011 | 49 | 317 | 2.6 | 7.0 | 0.00 | 0.02 | 0.00 | 46 | 1016.3 |
| 20260510130504 | 49 | 325 | 3.5 | 6.1 | 0.00 | 0.02 | 0.00 | 49 | 1016.2 |
| 20260510130009 | 49 | 352 | 2.6 | 7.0 | 0.00 | 0.02 | 0.00 | 49 | 1016.1 |
| 20260510125507 | 49 | 333 | 3.5 | 7.0 | 0.00 | 0.02 | 0.00 | 48 | 1016.2 |
| 20260510125010 | 48 | 346 | 2.6 | 6.1 | 0.00 | 0.02 | 0.00 | 50 | 1016.1 |
| 20260510124525 | 48 | 38 | 3.5 | 7.0 | 0.00 | 0.02 | 0.00 | 51 | 1016.2 |
| 20260510124007 | 48 | 38 | 2.6 | 7.8 | 0.00 | 0.02 | 0.00 | 52 | 1016.1 |
| 20260510123515 | 48 | 13 | 3.5 | 7.8 | 0.00 | 0.02 | 0.00 | 54 | 1016.1 |
| 20260510123028 | 48 | 352 | 2.6 | 7.0 | 0.00 | 0.02 | 0.00 | 55 | 1016.2 |
| 20260510122510 | 47 | 24 | 3.5 | 7.0 | 0.00 | 0.02 | 0.00 | 56 | 1016.0 |
| 20260510122007 | 47 | 285 | 2.6 | 6.1 | 0.00 | 0.02 | 0.00 | 57 | 1015.9 |
| 20260510121514 | 47 | 350 | 2.6 | 8.7 | 0.00 | 0.02 | 0.00 | 58 | 1015.9 |
| 20260510121008 | 46 | 352 | 4.3 | 9.6 | 0.00 | 0.02 | 0.00 | 58 | 1015.8 |
| 20260510120511 | 46 | 352 | 5.2 | 9.6 | 0.00 | 0.02 | 0.00 | 59 | 1015.7 |
| 20260510120025 | 46 | 317 | 2.6 | 7.0 | 0.00 | 0.02 | 0.00 | 61 | 1015.7 |
| 20260510115510 | 45 | 330 | 1.7 | 5.2 | 0.00 | 0.02 | 0.00 | 61 | 1015.6 |
| 20260510115011 | 45 | 328 | 1.7 | 5.2 | 0.00 | 0.02 | 0.00 | 63 | 1015.5 |
| 20260510114529 | 44 | 322 | 2.6 | 5.2 | 0.00 | 0.02 | 0.00 | 64 | 1015.3 |
| 20260510114009 | 44 | 343 | 1.7 | 5.2 | 0.00 | 0.02 | 0.00 | 65 | 1015.2 |
| 20260510113508 | 43 | 346 | 1.7 | 4.3 | 0.00 | 0.02 | 0.00 | 68 | 1015.2 |
| 20260510113019 | 42 | 352 | 1.7 | 4.3 | 0.00 | 0.02 | 0.00 | 69 | 1015.3 |
| 20260510112507 | 41 | 336 | 1.7 | 2.6 | 0.00 | 0.02 | 0.00 | 70 | 1015.2 |
| 20260510112007 | 41 | 333 | 0.9 | 4.3 | 0.00 | 0.02 | 0.00 | 73 | 1015.1 |
| 20260510111525 | 40 | 329 | 0.9 | 4.3 | 0.00 | 0.02 | 0.00 | 74 | 1015.1 |
| 20260510111012 | 39 | 340 | 0.9 | 3.5 | 0.00 | 0.02 | 0.00 | 76 | 1014.9 |
| 20260510110512 | 38 | 311 | 1.7 | 3.5 | 0.00 | 0.02 | 0.00 | 79 | 1015.0 |
| 20260510110019 | 38 | 313 | 0.9 | 3.5 | 0.00 | 0.02 | 0.00 | 82 | 1015.0 |
| 20260510105507 | 37 | 316 | 0.9 | 3.5 | 0.00 | 0.02 | 0.00 | 83 | 1014.9 |
| 20260510105010 | 37 | 325 | 0.9 | 2.6 | 0.00 | 0.02 | 0.00 | 84 | 1014.7 |
| 20260510104524 | 37 | 9 | 0.0 | 1.7 | 0.00 | 0.02 | 0.00 | 84 | 1014.7 |
| 20260510104011 | 37 | 5 | 0.0 | 1.7 | 0.00 | 0.02 | 0.00 | 84 | 1014.6 |
| 20260510103503 | 37 | 13 | 0.0 | 0.9 | 0.00 | 0.02 | 0.00 | 84 | 1014.5 |
| 20260510103008 | 37 | 20 | 0.0 | 0.0 | 0.00 | 0.02 | 0.00 | 84 | 1014.5 |
| 20260510102508 | 37 | 20 | 0.0 | 1.7 | 0.00 | 0.02 | 0.00 | 84 | 1014.5 |
| 20260510102011 | 37 | 20 | 0.0 | 1.7 | 0.00 | 0.02 | 0.00 | 83 | 1014.5 |
| 20260510101519 | 37 | 20 | 0.0 | 1.7 | 0.00 | 0.02 | 0.00 | 83 | 1014.4 |
| 20260510101009 | 37 | 20 | 0.0 | 0.0 | 0.00 | 0.02 | 0.00 | 82 | 1014.1 |
| 20260510100510 | 37 | 20 | 0.0 | 0.0 | 0.00 | 0.02 | 0.00 | 81 | 1014.1 |
| 20260510100026 | 37 | 20 | 0.0 | 1.7 | 0.00 | 0.02 | 0.00 | 80 | 1014.1 |
| 20260510095503 | 38 | 20 | 0.0 | 1.7 | 0.00 | 0.02 | 0.00 | 80 | 1014.0 |
| 20260510095004 | 38 | 20 | 0.0 | 1.7 | 0.00 | 0.02 | 0.00 | 80 | 1014.0 |
| 20260510094514 | 38 | 20 | 0.0 | 1.7 | 0.00 | 0.02 | 0.00 | 80 | 1013.8 |
| 20260510094007 | 38 | 20 | 0.0 | 0.9 | 0.00 | 0.02 | 0.00 | 80 | 1013.8 |
| 20260510093507 | 38 | 20 | 0.0 | 0.9 | 0.00 | 0.02 | 0.00 | 81 | 1013.8 |
| 20260510093023 | 38 | 20 | 0.0 | 0.9 | 0.00 | 0.02 | 0.00 | 80 | 1013.8 |
| 20260510092509 | 39 | 20 | 0.0 | 0.9 | 0.00 | 0.02 | 0.00 | 80 | 1013.8 |
| 20260510092012 | 38 | 20 | 0.0 | 0.9 | 0.00 | 0.02 | 0.00 | 79 | 1013.7 |
| 20260510091525 | 39 | 20 | 0.0 | 0.9 | 0.00 | 0.02 | 0.00 | 78 | 1013.6 |
| 20260510091003 | 39 | 20 | 0.0 | 0.9 | 0.00 | 0.02 | 0.00 | 78 | 1013.5 |
| 20260510090506 | 39 | 20 | 0.0 | 1.7 | 0.00 | 0.02 | 0.00 | 77 | 1013.4 |
| 20260510090018 | 39 | 20 | 0.0 | 1.7 | 0.00 | 0.02 | 0.00 | 77 | 1013.3 |
| 20260510085506 | 40 | 20 | 0.0 | 1.7 | 0.00 | 0.02 | 0.00 | 76 | 1013.2 |
| 20260510085009 | 40 | 20 | 0.0 | 1.7 | 0.00 | 0.02 | 0.00 | 75 | 1013.0 |
| 20260510084525 | 40 | 20 | 0.0 | 1.7 | 0.00 | 0.02 | 0.00 | 75 | 1012.8 |
| 20260510084009 | 40 | 20 | 0.0 | 1.7 | 0.00 | 0.02 | 0.00 | 74 | 1012.7 |
| 20260510083514 | 41 | 20 | 0.0 | 1.7 | 0.00 | 0.02 | 0.00 | 74 | 1012.6 |
| 20260510083008 | 41 | 20 | 0.0 | 1.7 | 0.00 | 0.02 | 0.00 | 73 | 1012.5 |
| 20260510082506 | 41 | 20 | 0.0 | 0.9 | 0.00 | 0.02 | 0.00 | 72 | 1012.4 |
| 20260510082006 | 42 | 20 | 0.0 | 1.7 | 0.00 | 0.02 | 0.00 | 72 | 1012.3 |
| 20260510081535 | 42 | 20 | 0.9 | 1.7 | 0.00 | 0.02 | 0.00 | 72 | 1012.2 |
| 20260510081009 | 42 | 32 | 0.0 | 1.7 | 0.00 | 0.02 | 0.00 | 71 | 1012.2 |
| 20260510080510 | 42 | 32 | 0.9 | 1.7 | 0.00 | 0.02 | 0.00 | 70 | 1012.1 |
| 20260510080028 | 42 | 32 | 0.0 | 1.7 | 0.00 | 0.02 | 0.00 | 70 | 1012.1 |
| 20260510075511 | 43 | 32 | 0.9 | 1.7 | 0.00 | 0.02 | 0.00 | 69 | 1012.0 |
| 20260510075006 | 43 | 32 | 0.9 | 1.7 | 0.00 | 0.02 | 0.00 | 68 | 1011.9 |
| 20260510074514 | 44 | 32 | 0.0 | 1.7 | 0.00 | 0.02 | 0.00 | 68 | 1011.7 |
| 20260510074012 | 44 | 32 | 0.0 | 2.6 | 0.00 | 0.02 | 0.00 | 67 | 1011.7 |
| 20260510073511 | 44 | 32 | 0.9 | 3.5 | 0.00 | 0.02 | 0.00 | 67 | 1011.6 |
| 20260510073024 | 44 | 28 | 1.7 | 3.5 | 0.00 | 0.02 | 0.00 | 66 | 1011.5 |
| 20260510072517 | 44 | 33 | 1.7 | 2.6 | 0.00 | 0.02 | 0.00 | 66 | 1011.5 |
| 20260510072012 | 45 | 43 | 1.7 | 3.5 | 0.00 | 0.02 | 0.00 | 66 | 1011.4 |
| 20260510071529 | 45 | 32 | 1.7 | 3.5 | 0.00 | 0.02 | 0.00 | 65 | 1011.3 |
| 20260510071003 | 45 | 41 | 1.7 | 3.5 | 0.00 | 0.02 | 0.00 | 65 | 1011.2 |
| 20260510070506 | 45 | 31 | 1.7 | 2.6 | 0.00 | 0.02 | 0.00 | 65 | 1011.2 |
| 20260510070022 | 46 | 49 | 1.7 | 1.7 | 0.00 | 0.02 | 0.00 | 64 | 1011.1 |
| 20260510065507 | 46 | 57 | 0.9 | 2.6 | 0.00 | 0.02 | 0.00 | 64 | 1011.0 |
| 20260510065010 | 46 | 56 | 0.9 | 2.6 | 0.00 | 0.02 | 0.00 | 64 | 1011.1 |
| 20260510064534 | 47 | 49 | 0.9 | 2.6 | 0.00 | 0.02 | 0.00 | 63 | 1011.0 |
| 20260510064008 | 47 | 41 | 1.7 | 2.6 | 0.00 | 0.02 | 0.00 | 63 | 1011.0 |
| 20260510063513 | 47 | 36 | 2.6 | 4.3 | 0.00 | 0.02 | 0.00 | 63 | 1011.0 |
| 20260510063010 | 47 | 46 | 1.7 | 8.7 | 0.00 | 0.02 | 0.00 | 63 | 1010.9 |
| 20260510062507 | 47 | 36 | 2.6 | 8.7 | 0.00 | 0.02 | 0.00 | 63 | 1010.8 |
| 20260510062015 | 47 | 74 | 4.3 | 8.7 | 0.00 | 0.02 | 0.00 | 65 | 1010.6 |
| 20260510061527 | 46 | 43 | 4.3 | 7.8 | 0.00 | 0.02 | 0.00 | 67 | 1010.3 |
| 20260510061007 | 46 | 32 | 2.6 | 4.3 | 0.00 | 0.02 | 0.00 | 69 | 1010.2 |
| 20260510060515 | 46 | 22 | 0.0 | 1.7 | 0.00 | 0.02 | 0.00 | 68 | 1010.1 |
| 20260510060040 | 47 | 22 | 0.0 | 0.0 | 0.00 | 0.02 | 0.00 | 66 | 1010.2 |
| 20260510055510 | 47 | 22 | 0.0 | 1.7 | 0.00 | 0.02 | 0.00 | 65 | 1010.1 |
| 20260510055003 | 48 | 22 | 0.0 | 1.7 | 0.00 | 0.02 | 0.00 | 65 | 1010.0 |
| 20260510054516 | 48 | 22 | 0.0 | 1.7 | 0.00 | 0.02 | 0.00 | 64 | 1009.9 |
| 20260510054012 | 49 | 22 | 0.0 | 1.7 | 0.00 | 0.02 | 0.00 | 63 | 1009.8 |
| 20260510053511 | 49 | 22 | 0.0 | 1.7 | 0.00 | 0.02 | 0.00 | 62 | 1009.8 |
| 20260510053037 | 50 | 22 | 0.0 | 1.7 | 0.00 | 0.02 | 0.00 | 61 | 1009.7 |
| 20260510052509 | 50 | 22 | 0.9 | 2.6 | 0.00 | 0.02 | 0.00 | 61 | 1009.7 |
| 20260510052015 | 50 | 360 | 0.0 | 2.6 | 0.00 | 0.02 | 0.00 | 61 | 1009.6 |
| 20260510051530 | 50 | 360 | 1.7 | 3.5 | 0.00 | 0.02 | 0.00 | 60 | 1009.5 |
| 20260510051004 | 51 | 9 | 1.7 | 3.5 | 0.00 | 0.02 | 0.00 | 60 | 1009.5 |
| 20260510050508 | 51 | 23 | 1.7 | 3.5 | 0.00 | 0.02 | 0.00 | 59 | 1009.3 |
| 20260510050020 | 51 | 35 | 1.7 | 3.5 | 0.00 | 0.02 | 0.00 | 58 | 1009.3 |
| 20260510045508 | 51 | 5 | 1.7 | 3.5 | 0.00 | 0.02 | 0.00 | 58 | 1009.3 |
| 20260510045009 | 51 | 17 | 1.7 | 3.5 | 0.00 | 0.02 | 0.00 | 58 | 1009.2 |
| 20260510044542 | 52 | 17 | 0.9 | 3.5 | 0.00 | 0.02 | 0.00 | 57 | 1009.1 |
| 20260510044007 | 52 | 15 | 1.7 | 3.5 | 0.00 | 0.02 | 0.00 | 57 | 1009.0 |
| 20260510043511 | 52 | 352 | 1.7 | 3.5 | 0.00 | 0.02 | 0.00 | 57 | 1009.1 |
| 20260510043012 | 52 | 360 | 1.7 | 5.2 | 0.00 | 0.02 | 0.00 | 56 | 1009.0 |
| 20260510042506 | 52 | 352 | 2.6 | 5.2 | 0.00 | 0.02 | 0.00 | 56 | 1008.9 |
| 20260510042011 | 52 | 13 | 2.6 | 4.3 | 0.00 | 0.02 | 0.00 | 56 | 1008.8 |
| 20260510041523 | 53 | 24 | 2.6 | 4.3 | 0.00 | 0.02 | 0.00 | 55 | 1008.6 |
| 20260510041007 | 53 | 352 | 3.5 | 7.0 | 0.00 | 0.02 | 0.00 | 55 | 1008.6 |
| 20260510040510 | 53 | 344 | 2.6 | 7.0 | 0.00 | 0.02 | 0.00 | 54 | 1008.5 |
| 20260510040038 | 54 | 28 | 2.6 | 7.8 | 0.00 | 0.02 | 0.00 | 53 | 1008.4 |
| 20260510035513 | 54 | 19 | 4.3 | 7.8 | 0.00 | 0.02 | 0.02 | 53 | 1008.4 |
| 20260510035008 | 54 | 40 | 2.6 | 8.7 | 0.00 | 0.02 | 0.02 | 53 | 1008.4 |
| 20260510034517 | 54 | 16 | 4.3 | 10.4 | 0.00 | 0.02 | 0.02 | 52 | 1008.3 |
| 20260510034006 | 55 | 30 | 7.0 | 13.0 | 0.00 | 0.02 | 0.02 | 52 | 1008.2 |
| 20260510033512 | 55 | 30 | 7.8 | 13.0 | 0.00 | 0.02 | 0.02 | 52 | 1008.1 |
| 20260510033037 | 55 | 19 | 3.5 | 13.0 | 0.00 | 0.02 | 0.02 | 52 | 1008.0 |
| 20260510032510 | 55 | 19 | 4.3 | 13.0 | 0.00 | 0.02 | 0.02 | 51 | 1007.9 |
| 20260510032018 | 55 | 343 | 8.7 | 14.8 | 0.00 | 0.02 | 0.02 | 51 | 1007.9 |
| 20260510031528 | 56 | 352 | 9.6 | 13.9 | 0.00 | 0.02 | 0.02 | 51 | 1007.8 |
| 20260510031011 | 56 | 360 | 4.3 | 13.0 | 0.00 | 0.02 | 0.02 | 52 | 1007.8 |
| 20260510030511 | 56 | 9 | 6.1 | 14.8 | 0.00 | 0.02 | 0.02 | 52 | 1007.7 |
| 20260510030019 | 57 | 34 | 9.6 | 14.8 | 0.00 | 0.02 | 0.02 | 52 | 1007.6 |
| 20260510025510 | 57 | 360 | 8.7 | 14.8 | 0.00 | 0.02 | 0.02 | 51 | 1007.6 |
| 20260510025011 | 58 | 23 | 7.0 | 13.9 | 0.00 | 0.02 | 0.02 | 49 | 1007.5 |
| 20260510024525 | 59 | 16 | 5.2 | 15.6 | 0.00 | 0.02 | 0.02 | 47 | 1007.4 |
| 20260510024010 | 59 | 19 | 9.6 | 14.8 | 0.00 | 0.02 | 0.02 | 44 | 1007.3 |
| 20260510023511 | 60 | 344 | 6.1 | 10.4 | 0.00 | 0.02 | 0.02 | 42 | 1007.1 |
| 20260510023028 | 60 | 13 | 5.2 | 13.0 | 0.00 | 0.02 | 0.02 | 42 | 1007.0 |
| 20260510022506 | 60 | 38 | 5.2 | 15.6 | 0.00 | 0.02 | 0.02 | 42 | 1006.8 |
| 20260510022013 | 60 | 333 | 7.8 | 15.6 | 0.00 | 0.02 | 0.02 | 42 | 1006.6 |
| 20260510021522 | 60 | 352 | 8.7 | 15.6 | 0.00 | 0.02 | 0.02 | 42 | 1006.4 |
| 20260510021009 | 61 | 360 | 7.0 | 13.9 | 0.00 | 0.02 | 0.02 | 45 | 1006.2 |
| 20260510020511 | 60 | 330 | 6.1 | 13.9 | 0.00 | 0.02 | 0.02 | 48 | 1006.1 |
| 20260510020032 | 60 | 336 | 0.9 | 2.6 | 0.00 | 0.02 | 0.02 | 50 | 1005.8 |
| 20260510015514 | 60 | 337 | 0.9 | 1.7 | 0.00 | 0.02 | 0.02 | 49 | 1005.6 |
| 20260510015017 | 60 | 332 | 0.9 | 1.7 | 0.00 | 0.02 | 0.02 | 49 | 1005.5 |
| 20260510014517 | 60 | 346 | 0.9 | 1.7 | 0.00 | 0.02 | 0.02 | 48 | 1005.3 |
| 20260510014007 | 61 | 339 | 0.9 | 1.7 | 0.00 | 0.02 | 0.02 | 48 | 1005.3 |
| 20260510013510 | 61 | 333 | 0.9 | 2.6 | 0.00 | 0.02 | 0.02 | 47 | 1005.1 |
| 20260510013027 | 61 | 333 | 0.0 | 2.6 | 0.00 | 0.02 | 0.02 | 47 | 1005.0 |
| 20260510012507 | 62 | 335 | 0.9 | 1.7 | 0.00 | 0.02 | 0.02 | 46 | 1004.8 |
| 20260510012014 | 62 | 334 | 0.9 | 2.6 | 0.00 | 0.02 | 0.02 | 45 | 1004.7 |
| 20260510011531 | 63 | 331 | 0.9 | 4.3 | 0.00 | 0.02 | 0.02 | 44 | 1004.6 |
| 20260510011011 | 63 | 331 | 1.7 | 4.3 | 0.00 | 0.02 | 0.02 | 43 | 1004.5 |
| 20260510010507 | 63 | 323 | 0.9 | 7.0 | 0.00 | 0.02 | 0.02 | 43 | 1004.5 |
| 20260510010025 | 63 | 329 | 0.9 | 7.0 | 0.00 | 0.02 | 0.02 | 43 | 1004.4 |
| 20260510005510 | 64 | 351 | 1.7 | 3.5 | 0.00 | 0.02 | 0.02 | 42 | 1004.3 |
| 20260510005014 | 64 | 328 | 1.7 | 3.5 | 0.00 | 0.02 | 0.02 | 42 | 1004.3 |
| 20260510004528 | 64 | 336 | 1.7 | 3.5 | 0.00 | 0.02 | 0.02 | 42 | 1004.1 |
| 20260510004013 | 64 | 329 | 1.7 | 5.2 | 0.00 | 0.02 | 0.02 | 41 | 1004.1 |
| 20260510003512 | 64 | 321 | 1.7 | 5.2 | 0.00 | 0.02 | 0.02 | 41 | 1003.9 |
| 20260510003030 | 65 | 328 | 2.6 | 4.3 | 0.00 | 0.02 | 0.02 | 40 | 1003.8 |
| 20260510002510 | 65 | 307 | 1.7 | 4.3 | 0.00 | 0.02 | 0.02 | 39 | 1003.7 |
| 20260510002009 | 65 | 330 | 1.7 | 7.0 | 0.00 | 0.02 | 0.02 | 39 | 1003.7 |
| 20260510001526 | 66 | 350 | 2.6 | 11.3 | 0.00 | 0.02 | 0.02 | 39 | 1003.5 |
| 20260510001010 | 66 | 317 | 3.5 | 17.4 | 0.00 | 0.02 | 0.02 | 38 | 1003.5 |
| 20260510000514 | 66 | 287 | 3.5 | 17.4 | 0.00 | 0.02 | 0.02 | 38 | 1003.5 |
| 20260510000028 | 66 | 288 | 7.0 | 17.4 | 0.00 | 0.02 | 0.02 | 37 | 1003.4 |
| 20260509235505 | 66 | 242 | 4.3 | 21.7 | 0.00 | 0.02 | 0.02 | 37 | 1003.4 |
| 20260509235010 | 67 | 321 | 7.8 | 21.7 | 0.00 | 0.02 | 0.02 | 36 | 1003.3 |
| 20260509234529 | 67 | 304 | 7.8 | 14.8 | 0.00 | 0.02 | 0.02 | 36 | 1003.3 |
| 20260509234010 | 67 | 252 | 5.2 | 17.4 | 0.00 | 0.02 | 0.02 | 36 | 1003.2 |
| 20260509233503 | 67 | 269 | 7.8 | 17.4 | 0.00 | 0.02 | 0.02 | 35 | 1003.2 |
| 20260509233007 | 67 | 279 | 7.0 | 14.8 | 0.00 | 0.02 | 0.02 | 35 | 1003.1 |
| 20260509232506 | 68 | 281 | 7.8 | 13.9 | 0.00 | 0.02 | 0.02 | 35 | 1003.1 |
| 20260509232007 | 68 | 302 | 6.1 | 18.2 | 0.00 | 0.02 | 0.02 | 33 | 1003.2 |
| 20260509231513 | 68 | 296 | 8.7 | 18.2 | 0.00 | 0.02 | 0.02 | 33 | 1003.1 |
| 20260509231007 | 68 | 263 | 7.8 | 23.5 | 0.00 | 0.02 | 0.02 | 33 | 1003.0 |
| 20260509230509 | 69 | 262 | 12.2 | 23.5 | 0.00 | 0.02 | 0.02 | 31 | 1003.0 |
| 20260509230021 | 69 | 242 | 10.4 | 20.0 | 0.00 | 0.02 | 0.02 | 31 | 1002.9 |
| 20260509225504 | 69 | 278 | 12.2 | 25.2 | 0.00 | 0.02 | 0.02 | 30 | 1002.7 |
| 20260509225005 | 70 | 266 | 11.3 | 25.2 | 0.00 | 0.02 | 0.02 | 30 | 1002.6 |
| 20260509224507 | 70 | 302 | 8.7 | 16.5 | 0.00 | 0.02 | 0.02 | 31 | 1002.3 |
| 20260509224005 | 70 | 254 | 7.8 | 20.0 | 0.00 | 0.02 | 0.02 | 32 | 1002.3 |
| 20260509223506 | 70 | 249 | 8.7 | 20.0 | 0.00 | 0.02 | 0.02 | 32 | 1002.1 |
| 20260509223021 | 70 | 263 | 8.7 | 20.9 | 0.00 | 0.02 | 0.02 | 33 | 1001.9 |
| 20260509222506 | 70 | 308 | 10.4 | 20.9 | 0.00 | 0.02 | 0.02 | 34 | 1001.8 |
| 20260509222008 | 69 | 246 | 7.0 | 13.9 | 0.00 | 0.02 | 0.02 | 35 | 1001.9 |
| 20260509221503 | 69 | 252 | 7.8 | 23.5 | 0.00 | 0.02 | 0.02 | 35 | 1001.7 |
| 20260509221003 | 69 | 233 | 13.0 | 23.5 | 0.00 | 0.02 | 0.02 | 35 | 1001.8 |
| 20260509220508 | 69 | 284 | 12.2 | 20.9 | 0.00 | 0.02 | 0.02 | 34 | 1001.7 |
| 20260509220011 | 69 | 227 | 9.6 | 26.1 | 0.00 | 0.02 | 0.02 | 34 | 1001.6 |
| 20260509215507 | 70 | 319 | 10.4 | 26.1 | 0.00 | 0.02 | 0.02 | 33 | 1001.5 |
| 20260509215011 | 71 | 248 | 10.4 | 20.0 | 0.00 | 0.02 | 0.02 | 32 | 1001.5 |
| 20260509214520 | 71 | 232 | 5.2 | 16.5 | 0.00 | 0.02 | 0.02 | 32 | 1001.4 |
| 20260509214008 | 70 | 242 | 8.7 | 16.5 | 0.00 | 0.02 | 0.02 | 32 | 1001.2 |
| 20260509213503 | 70 | 265 | 7.0 | 21.7 | 0.00 | 0.02 | 0.02 | 32 | 1001.3 |
| 20260509213008 | 70 | 244 | 10.4 | 21.7 | 0.00 | 0.02 | 0.02 | 32 | 1001.2 |
| 20260509212506 | 71 | 276 | 7.8 | 14.8 | 0.00 | 0.02 | 0.02 | 33 | 1001.3 |
| 20260509212010 | 70 | 226 | 7.8 | 14.8 | 0.00 | 0.02 | 0.02 | 33 | 1001.3 |
| 20260509211518 | 70 | 287 | 7.0 | 14.8 | 0.00 | 0.02 | 0.02 | 33 | 1001.4 |
| 20260509211007 | 70 | 230 | 7.8 | 13.0 | 0.00 | 0.02 | 0.02 | 35 | 1001.5 |
| 20260509210515 | 70 | 256 | 6.1 | 20.0 | 0.00 | 0.02 | 0.02 | 37 | 1001.4 |
| 20260509210022 | 70 | 292 | 6.1 | 20.0 | 0.00 | 0.02 | 0.02 | 39 | 1001.5 |
| 20260509205504 | 70 | 277 | 7.0 | 14.8 | 0.00 | 0.02 | 0.02 | 41 | 1001.5 |
| 20260509205003 | 69 | 250 | 5.2 | 15.6 | 0.00 | 0.02 | 0.02 | 45 | 1001.4 |
| 20260509204514 | 69 | 297 | 4.3 | 15.6 | 0.00 | 0.02 | 0.02 | 43 | 1001.5 |
| 20260509204007 | 69 | 251 | 7.0 | 14.8 | 0.00 | 0.02 | 0.02 | 47 | 1001.6 |
| 20260509203510 | 69 | 314 | 5.2 | 11.3 | 0.00 | 0.02 | 0.02 | 48 | 1001.8 |
| 20260509203020 | 68 | 294 | 5.2 | 17.4 | 0.00 | 0.02 | 0.02 | 50 | 1001.7 |
| 20260509202509 | 69 | 336 | 7.8 | 15.6 | 0.00 | 0.02 | 0.02 | 50 | 1001.9 |
| 20260509202010 | 68 | 252 | 6.1 | 12.2 | 0.00 | 0.02 | 0.02 | 47 | 1002.0 |
| 20260509201507 | 68 | 289 | 5.2 | 11.3 | 0.00 | 0.02 | 0.02 | 55 | 1001.9 |
| 20260509201002 | 67 | 253 | 3.5 | 9.6 | 0.02 | 0.02 | 0.02 | 56 | 1001.9 |
| 20260509200507 | 66 | 276 | 5.2 | 9.6 | 0.02 | 0.02 | 0.02 | 63 | 1001.9 |
| 20260509200016 | 65 | 290 | 1.7 | 7.0 | 0.02 | 0.02 | 0.02 | 62 | 1001.9 |
| 20260509195512 | 64 | 257 | 3.5 | 9.6 | 0.02 | 0.02 | 0.02 | 63 | 1002.0 |
| 20260509195009 | 64 | 293 | 5.2 | 11.3 | 0.02 | 0.02 | 0.02 | 64 | 1002.0 |
| 20260509194521 | 63 | 252 | 7.0 | 10.4 | 0.02 | 0.02 | 0.02 | 65 | 1002.1 |
| 20260509194007 | 62 | 275 | 4.3 | 9.6 | 0.02 | 0.02 | 0.02 | 72 | 1002.1 |
| 20260509193503 | 60 | 257 | 3.5 | 7.0 | 0.02 | 0.02 | 0.02 | 72 | 1002.1 |
| 20260509193008 | 58 | 201 | 2.6 | 10.4 | 0.02 | 0.02 | 0.02 | 75 | 1002.2 |
| 20260509192505 | 57 | 257 | 0.0 | 14.8 | 0.02 | 0.02 | 0.02 | 75 | 1002.4 |
| 20260509192008 | 57 | 255 | 5.2 | 18.2 | 0.02 | 0.02 | 0.02 | 73 | 1002.6 |
| 20260509191519 | 57 | 269 | 7.0 | 20.0 | 0.02 | 0.02 | 0.02 | 72 | 1002.8 |
| 20260509191011 | 58 | 306 | 10.4 | 25.2 | 0.00 | 0.00 | 0.00 | 67 | 1002.7 |
| 20260509190509 | 61 | 300 | 7.0 | 29.5 | 0.00 | 0.00 | 0.00 | 60 | 1002.5 |
| 20260509190024 | 65 | 259 | 11.3 | 23.5 | 0.00 | 0.00 | 0.00 | 49 | 1002.7 |
| 20260509185505 | 67 | 260 | 6.1 | 16.5 | 0.00 | 0.00 | 0.00 | 49 | 1001.5 |
| 20260509185004 | 67 | 242 | 7.8 | 18.2 | 0.00 | 0.00 | 0.00 | 47 | 1001.2 |
| 20260509184512 | 68 | 269 | 8.7 | 19.1 | 0.00 | 0.00 | 0.00 | 48 | 1001.3 |
| 20260509184006 | 68 | 259 | 8.7 | 19.1 | 0.00 | 0.00 | 0.00 | 47 | 1001.4 |
| 20260509183510 | 68 | 242 | 11.3 | 18.2 | 0.00 | 0.00 | 0.00 | 47 | 1001.2 |
| 20260509183023 | 68 | 248 | 7.8 | 19.1 | 0.00 | 0.00 | 0.00 | 47 | 1001.1 |
| 20260509182508 | 69 | 214 | 10.4 | 19.1 | 0.00 | 0.00 | 0.00 | 46 | 1001.0 |
| 20260509182007 | 69 | 265 | 8.7 | 21.7 | 0.00 | 0.00 | 0.00 | 47 | 1001.0 |
| 20260509181506 | 69 | 188 | 9.6 | 20.9 | 0.00 | 0.00 | 0.00 | 46 | 1001.0 |
| 20260509181004 | 69 | 261 | 7.8 | 20.0 | 0.00 | 0.00 | 0.00 | 45 | 1001.0 |
| 20260509180507 | 69 | 244 | 12.2 | 20.0 | 0.00 | 0.00 | 0.00 | 45 | 1001.1 |
| 20260509180015 | 69 | 226 | 7.8 | 20.0 | 0.00 | 0.00 | 0.00 | 46 | 1001.2 |
| 20260509175507 | 69 | 238 | 8.7 | 19.1 | 0.00 | 0.00 | 0.00 | 45 | 1001.2 |
| 20260509175014 | 69 | 257 | 12.2 | 18.2 | 0.00 | 0.00 | 0.00 | 45 | 1001.3 |
| 20260509174524 | 69 | 236 | 7.8 | 21.7 | 0.00 | 0.00 | 0.00 | 45 | 1001.5 |
| 20260509174010 | 69 | 260 | 8.7 | 21.7 | 0.00 | 0.00 | 0.00 | 44 | 1001.3 |
| 20260509173504 | 68 | 184 | 8.7 | 20.0 | 0.00 | 0.00 | 0.00 | 44 | 1001.4 |
| 20260509173013 | 68 | 179 | 11.3 | 20.0 | 0.00 | 0.00 | 0.00 | 43 | 1001.4 |
| 20260509172507 | 68 | 213 | 11.3 | 20.0 | 0.00 | 0.00 | 0.00 | 43 | 1001.3 |
| 20260509172007 | 68 | 230 | 8.7 | 18.2 | 0.00 | 0.00 | 0.00 | 45 | 1001.4 |
| 20260509171527 | 67 | 228 | 7.0 | 17.4 | 0.00 | 0.00 | 0.00 | 49 | 1001.5 |
| 20260509171008 | 68 | 227 | 9.6 | 17.4 | 0.00 | 0.00 | 0.00 | 49 | 1001.6 |
| 20260509170512 | 68 | 188 | 7.8 | 17.4 | 0.00 | 0.00 | 0.00 | 49 | 1001.5 |
| 20260509170026 | 68 | 235 | 8.7 | 16.5 | 0.00 | 0.00 | 0.00 | 49 | 1001.6 |
| 20260509165505 | 67 | 209 | 8.7 | 16.5 | 0.00 | 0.00 | 0.00 | 48 | 1001.7 |
| 20260509165005 | 67 | 234 | 8.7 | 17.4 | 0.00 | 0.00 | 0.00 | 50 | 1001.8 |
| 20260509164516 | 66 | 244 | 9.6 | 17.4 | 0.00 | 0.00 | 0.00 | 50 | 1001.8 |